QPF
0.00 0.00 0.00 0.00 0.00 0.00 0.00 0.00 0.00 0.00 0.00 0.00 0.00 0.00 0.00 0.00 0.00 0.00 0.00 0.00 0.00 0.00 0.00 0.00 0.00 0.00 0.00 0.00 0.00 0.00 0.01 0.01 0.00 0.00 0.00 0.01 0.01 0.01 0.01 0.01 0.00 0.01
0.00 0.00 0.00 0.00 0.00 0.00 0.00 0.00 0.00 0.00 0.00 0.00 0.00 0.00 0.00 0.00 0.00 0.00 0.00 0.00 0.00 0.00 0.00 0.00 0.00 0.00 0.00 0.00 0.00 0.00 0.00 0.00 0.00 0.00 0.00 0.00 0.00 0.01 0.01 0.01 0.01 0.01
0.00 0.00 0.00 0.00 0.00 0.00 0.00 0.00 0.00 0.00 0.00 0.00 0.00 0.00 0.00 0.00 0.00 0.00 0.00 0.00 0.00 0.00 0.00 0.00 0.00 0.00 0.00 0.00 0.00 0.00 0.00 0.00 0.00 0.00 0.00 0.00 0.00 0.00 0.00 0.00 0.01 0.00
0.00 0.00 0.00 0.00 0.00 0.00 0.00 0.00 0.00 0.00 0.00 0.00 0.00 0.00 0.00 0.00 0.00 0.00 0.00 0.00 0.00 0.00 0.00 0.00 0.00 0.00 0.00 0.00 0.00 0.00 0.00 0.00 0.00 0.00 0.00 0.00 0.00 0.00 0.00 0.00 0.00 0.00
0.00 0.00 0.00 0.00 0.00 0.00 0.00 0.00 0.00 0.00 0.00 0.00 0.00 0.00 0.00 0.00 0.00 0.00 0.00 0.00 0.00 0.00 0.00 0.00 0.00 0.00 0.00 0.00 0.00 0.00 0.00 0.00 0.00 0.00 0.00 0.00 0.00 0.00 0.00 0.00 0.00 0.00
0.00 0.00 0.00 0.00 0.00 0.00 0.00 0.00 0.00 0.00 0.00 0.00 0.00 0.00 0.00 0.00 0.00 0.00 0.00 0.00 0.00 0.00 0.00 0.00 0.00 0.00 0.00 0.00 0.00 0.00 0.00 0.00 0.00 0.00 0.00 0.00 0.00 0.00 0.00 0.00 0.00 0.00
0.00 0.00 0.00 0.00 0.00 0.00 0.00 0.00 0.00 0.00 0.00 0.00 0.00 0.00 0.00 0.00 0.00 0.00 0.00 0.00 0.00 0.00 0.00 0.00 0.00 0.00 0.00 0.00 0.00 0.00 0.00 0.00 0.00 0.00 0.00 0.00 0.00 0.00 0.00 0.00 0.00 0.00
0.00 0.00 0.00 0.00 0.00 0.00 0.00 0.00 0.00 0.00 0.00 0.00 0.00 0.00 0.00 0.00 0.00 0.00 0.00 0.00 0.00 0.00 0.00 0.00 0.00 0.00 0.00 0.00 0.00 0.00 0.00 0.00 0.00 0.00 0.00 0.00 0.00 0.00 0.00 0.00 0.00 0.00
0.00 0.00 0.00 0.00 0.00 0.00 0.00 0.00 0.00 0.00 0.00 0.00 0.00 0.00 0.00 0.00 0.00 0.00 0.00 0.00 0.00 0.00 0.00 0.00 0.00 0.00 0.00 0.00 0.00 0.00 0.00 0.00 0.00 0.00 0.00 0.00 0.00 0.00 0.00 0.00 0.00 0.00
0.00 0.00 0.00 0.00 0.00 0.00 0.00 0.00 0.00 0.00 0.00 0.00 0.00 0.00 0.00 0.00 0.00 0.00 0.00 0.00 0.00 0.00 0.00 0.00 0.00 0.00 0.00 0.00 0.00 0.00 0.00 0.00 0.00 0.00 0.00 0.00 0.00 0.00 0.00 0.00 0.00 0.00
0.00 0.00 0.00 0.00 0.00 0.00 0.00 0.00 0.00 0.00 0.00 0.00 0.00 0.00 0.00 0.00 0.00 0.00 0.00 0.00 0.00 0.00 0.00 0.00 0.00 0.00 0.00 0.00 0.00 0.00 0.00 0.00 0.00 0.00 0.00 0.00 0.00 0.00 0.00 0.00 0.00 0.00
0.00 0.00 0.00 0.00 0.00 0.00 0.00 0.00 0.00 0.00 0.00 0.00 0.00 0.00 0.00 0.00 0.00 0.00 0.00 0.00 0.00 0.00 0.00 0.00 0.00 0.00 0.00 0.00 0.00 0.00 0.00 0.00 0.00 0.00 0.00 0.00 0.00 0.00 0.00 0.00 0.00 0.00
0.00 0.00 0.00 0.00 0.00 0.00 0.00 0.00 0.00 0.00 0.00 0.00 0.00 0.00 0.00 0.00 0.00 0.00 0.00 0.00 0.00 0.00 0.00 0.00 0.00 0.00 0.00 0.00 0.00 0.00 0.00 0.00 0.00 0.00 0.00 0.00 0.00 0.00 0.00 0.00 0.00 0.00
0.00 0.00 0.00 0.00 0.00 0.00 0.00 0.00 0.00 0.00 0.00 0.00 0.00 0.00 0.00 0.00 0.00 0.00 0.00 0.00 0.00 0.00 0.00 0.00 0.00 0.00 0.00 0.00 0.00 0.00 0.00 0.00 0.00 0.00 0.00 0.00 0.00 0.00 0.00 0.00 0.00 0.00
0.00 0.00 0.00 0.00 0.00 0.00 0.00 0.00 0.00 0.00 0.00 0.00 0.00 0.00 0.00 0.00 0.00 0.00 0.00 0.00 0.00 0.00 0.00 0.00 0.00 0.00 0.00 0.00 0.00 0.00 0.00 0.00 0.00 0.00 0.00 0.00 0.00 0.00 0.00 0.00 0.00 0.00
0.00 0.00 0.00 0.00 0.00 0.00 0.00 0.00 0.00 0.00 0.00 0.00 0.00 0.00 0.00 0.00 0.00 0.00 0.00 0.00 0.00 0.00 0.00 0.00 0.00 0.00 0.00 0.00 0.00 0.00 0.00 0.00 0.00 0.00 0.00 0.00 0.00 0.00 0.00 0.00 0.00 0.00
0.00 0.00 0.00 0.00 0.00 0.00 0.00 0.00 0.00 0.00 0.00 0.00 0.00 0.00 0.00 0.00 0.00 0.00 0.00 0.00 0.00 0.00 0.00 0.00 0.00 0.00 0.00 0.00 0.00 0.00 0.00 0.00 0.00 0.00 0.00 0.00 0.00 0.00 0.00 0.00 0.00 0.00
0.00 0.00 0.00 0.00 0.00 0.00 0.00 0.00 0.00 0.00 0.00 0.00 0.00 0.00 0.00 0.00 0.00 0.00 0.00 0.00 0.00 0.00 0.00 0.00 0.00 0.00 0.00 0.00 0.00 0.00 0.00 0.00 0.00 0.00 0.00 0.00 0.00 0.00 0.00 0.00 0.00 0.00
0.00 0.00 0.00 0.00 0.00 0.00 0.00 0.00 0.00 0.00 0.00 0.00 0.00 0.00 0.00 0.00 0.00 0.00 0.00 0.00 0.00 0.00 0.00 0.00 0.00 0.00 0.00 0.00 0.00 0.00 0.00 0.00 0.00 0.00 0.00 0.00 0.00 0.00 0.00 0.00 0.00 0.00
0.00 0.00 0.00 0.00 0.00 0.00 0.00 0.00 0.00 0.00 0.00 0.00 0.00 0.00 0.00 0.00 0.00 0.00 0.00 0.00 0.00 0.00 0.00 0.00 0.00 0.00 0.00 0.00 0.00 0.00 0.00 0.00 0.00 0.00 0.00 0.00 0.00 0.00 0.00 0.00 0.00 0.00
0.00 0.00 0.00 0.00 0.00 0.00 0.00 0.00 0.00 0.00 0.00 0.00 0.00 0.00 0.00 0.00 0.00 0.00 0.00 0.00 0.00 0.00 0.00 0.00 0.00 0.00 0.00 0.00 0.00 0.00 0.00 0.00 0.00 0.00 0.00 0.00 0.00 0.00 0.00 0.00 0.00 0.00
0.00 0.00 0.00 0.00 0.00 0.00 0.00 0.00 0.00 0.00 0.00 0.00 0.00 0.00 0.00 0.00 0.00 0.00 0.00 0.00 0.00 0.00 0.00 0.00 0.00 0.00 0.00 0.00 0.00 0.00 0.00 0.00 0.00 0.00 0.00 0.00 0.00 0.00 0.00 0.00 0.00 0.00
0.00 0.00 0.00 0.00 0.00 0.00 0.00 0.00 0.00 0.00 0.00 0.00 0.00 0.00 0.00 0.00 0.00 0.00 0.00 0.00 0.00 0.00 0.00 0.00 0.00 0.00 0.00 0.00 0.00 0.00 0.00 0.00 0.00 0.00 0.00 0.00 0.00 0.00 0.00 0.00 0.00 0.00
0.00 0.00 0.00 0.00 0.00 0.00 0.00 0.00 0.00 0.00 0.00 0.00 0.00 0.00 0.00 0.00 0.00 0.00 0.00 0.00 0.00 0.00 0.00 0.00 0.00 0.00 0.00 0.00 0.00 0.00 0.00 0.00 0.00 0.00 0.00 0.00 0.00 0.00 0.00 0.00 0.00 0.00
0.00 0.00 0.00 0.00 0.00 0.00 0.00 0.00 0.00 0.00 0.00 0.00 0.00 0.00 0.00 0.00 0.00 0.00 0.00 0.00 0.00 0.00 0.00 0.00 0.00 0.00 0.00 0.00 0.00 0.00 0.00 0.00 0.00 0.00 0.00 0.00 0.00 0.00 0.00 0.00 0.00 0.00
0.00 0.00 0.00 0.00 0.00 0.00 0.00 0.00 0.00 0.00 0.00 0.00 0.00 0.00 0.00 0.00 0.00 0.00 0.00 0.00 0.00 0.00 0.00 0.00 0.00 0.00 0.00 0.00 0.00 0.00 0.00 0.00 0.00 0.00 0.00 0.00 0.00 0.00 0.00 0.00 0.00 0.00
MSLP
1021.18 1021.14 1021.26 1021.34 1021.46 1021.50 1021.54 1021.54 1021.58 1021.62 1021.62 1021.50 1021.42 1021.34 1021.18 1021.10 1020.86 1020.70 1020.50 1020.26 1020.06 1020.06 1020.02 1019.98 1019.94 1019.78 1019.66 1019.50 1019.38 1019.22 1019.06 1018.74 1018.38 1018.18 1018.10 1017.78 1017.54 1017.34 1017.18 1017.06 1016.90 1016.78
1021.54 1021.50 1021.50 1021.58 1021.66 1021.70 1021.78 1021.86 1021.98 1022.02 1022.02 1021.94 1021.82 1021.70 1021.54 1021.38 1021.30 1021.06 1020.82 1020.58 1020.30 1020.30 1020.30 1020.22 1020.22 1020.14 1019.98 1019.82 1019.66 1019.54 1019.42 1019.22 1019.02 1018.82 1018.66 1018.34 1017.86 1017.42 1017.10 1016.90 1016.74 1016.58
1021.86 1021.82 1021.82 1021.90 1021.98 1022.02 1022.06 1022.10 1022.10 1022.18 1022.18 1022.14 1022.02 1021.90 1021.82 1021.62 1021.54 1021.34 1021.14 1020.90 1020.66 1020.54 1020.54 1020.46 1020.46 1020.34 1020.22 1020.18 1020.02 1019.90 1019.86 1019.58 1019.30 1019.06 1018.90 1018.66 1018.34 1018.02 1017.54 1016.98 1016.62 1016.46
1022.22 1022.18 1022.18 1022.18 1022.14 1022.18 1022.18 1022.18 1022.22 1022.18 1022.14 1022.10 1022.14 1022.06 1021.94 1021.78 1021.66 1021.54 1021.42 1021.22 1021.06 1020.86 1020.86 1020.70 1020.70 1020.62 1020.54 1020.46 1020.38 1020.34 1020.30 1020.14 1019.90 1019.54 1019.22 1018.82 1018.58 1018.34 1017.98 1017.54 1016.94 1016.42
1022.58 1022.54 1022.46 1022.38 1022.38 1022.30 1022.26 1022.18 1022.18 1022.22 1022.22 1022.30 1022.22 1022.06 1021.94 1021.82 1021.74 1021.66 1021.58 1021.50 1021.30 1021.18 1021.06 1020.98 1020.98 1020.94 1020.86 1020.78 1020.74 1020.74 1020.62 1020.50 1020.22 1019.98 1019.66 1019.26 1018.94 1018.62 1018.22 1017.86 1017.46 1017.02
1022.82 1022.78 1022.70 1022.66 1022.58 1022.46 1022.34 1022.26 1022.22 1022.26 1022.38 1022.46 1022.46 1022.26 1022.02 1021.86 1021.82 1021.74 1021.70 1021.66 1021.54 1021.38 1021.30 1021.26 1021.22 1021.22 1021.14 1021.14 1021.10 1021.10 1021.06 1020.82 1020.54 1020.22 1019.90 1019.58 1019.18 1018.86 1018.54 1018.22 1017.82 1017.38
1023.18 1023.06 1023.06 1023.02 1022.90 1022.70 1022.62 1022.58 1022.50 1022.46 1022.54 1022.78 1022.78 1022.58 1022.34 1022.06 1021.94 1021.98 1021.90 1021.86 1021.82 1021.70 1021.62 1021.70 1021.66 1021.50 1021.38 1021.30 1021.26 1021.22 1021.14 1021.02 1020.74 1020.42 1020.14 1019.74 1019.34 1018.94 1018.66 1018.42 1018.10 1017.82
1023.38 1023.34 1023.34 1023.34 1023.22 1023.14 1023.10 1023.06 1023.02 1022.90 1022.82 1023.06 1023.10 1023.02 1022.78 1022.58 1022.34 1022.26 1022.26 1022.26 1022.18 1022.22 1022.14 1022.10 1021.98 1021.86 1021.70 1021.58 1021.50 1021.38 1021.22 1021.10 1020.90 1020.62 1020.34 1019.94 1019.54 1019.18 1018.82 1018.50 1018.26 1017.98
1023.62 1023.62 1023.62 1023.62 1023.58 1023.58 1023.58 1023.54 1023.50 1023.38 1023.26 1023.38 1023.42 1023.34 1023.10 1022.86 1022.78 1022.66 1022.66 1022.62 1022.58 1022.58 1022.54 1022.42 1022.30 1022.22 1022.06 1021.94 1021.78 1021.62 1021.46 1021.26 1021.06 1020.78 1020.50 1020.14 1019.78 1019.38 1018.98 1018.58 1018.26 1017.94
1023.90 1023.98 1023.98 1023.98 1024.02 1024.06 1024.06 1024.06 1023.98 1023.90 1023.78 1023.78 1023.78 1023.62 1023.42 1023.18 1023.02 1022.98 1022.94 1022.94 1022.86 1022.82 1022.78 1022.74 1022.70 1022.58 1022.38 1022.26 1022.14 1021.86 1021.62 1021.34 1021.06 1020.74 1020.46 1020.18 1019.86 1019.46 1019.02 1018.66 1018.34 1018.02
1024.26 1024.38 1024.42 1024.42 1024.50 1024.50 1024.54 1024.50 1024.46 1024.38 1024.26 1024.18 1024.14 1024.02 1023.90 1023.70 1023.46 1023.30 1023.26 1023.22 1023.18 1023.14 1023.10 1023.06 1023.10 1022.94 1022.74 1022.58 1022.34 1022.06 1021.78 1021.46 1021.10 1020.74 1020.42 1020.10 1019.78 1019.46 1019.06 1018.70 1018.34 1018.02
1024.66 1024.70 1024.74 1024.78 1024.82 1024.90 1024.94 1024.94 1024.86 1024.82 1024.74 1024.62 1024.50 1024.50 1024.34 1024.22 1024.10 1023.86 1023.74 1023.70 1023.66 1023.58 1023.50 1023.42 1023.34 1023.18 1023.06 1022.90 1022.58 1022.22 1021.90 1021.54 1021.18 1020.82 1020.46 1020.06 1019.66 1019.30 1018.94 1018.58 1018.26 1017.90
1025.10 1025.10 1025.06 1025.06 1025.14 1025.22 1025.22 1025.18 1025.18 1025.14 1025.02 1024.98 1024.86 1024.78 1024.70 1024.58 1024.50 1024.38 1024.22 1024.14 1024.06 1023.94 1023.82 1023.66 1023.54 1023.34 1023.22 1023.02 1022.74 1022.42 1022.06 1021.74 1021.30 1020.82 1020.42 1020.10 1019.66 1019.26 1018.82 1018.42 1018.10 1017.78
1025.50 1025.42 1025.42 1025.38 1025.46 1025.50 1025.50 1025.46 1025.42 1025.38 1025.34 1025.26 1025.10 1025.02 1024.94 1024.90 1024.82 1024.70 1024.58 1024.46 1024.34 1024.22 1024.06 1023.86 1023.70 1023.50 1023.34 1023.18 1022.98 1022.66 1022.30 1021.90 1021.46 1020.98 1020.50 1020.02 1019.62 1019.22 1018.82 1018.46 1018.14 1017.82
1025.74 1025.70 1025.70 1025.74 1025.78 1025.82 1025.78 1025.78 1025.70 1025.66 1025.62 1025.50 1025.38 1025.30 1025.18 1025.14 1025.06 1024.94 1024.82 1024.66 1024.54 1024.42 1024.30 1024.10 1023.94 1023.78 1023.58 1023.50 1023.22 1022.82 1022.50 1022.06 1021.54 1021.06 1020.54 1020.10 1019.66 1019.30 1018.94 1018.58 1018.22 1017.90
1026.02 1026.02 1026.02 1026.06 1026.14 1026.18 1026.18 1026.14 1026.06 1025.98 1025.90 1025.78 1025.66 1025.58 1025.50 1025.34 1025.30 1025.18 1025.06 1024.94 1024.82 1024.66 1024.50 1024.34 1024.18 1023.98 1023.90 1023.74 1023.46 1023.10 1022.58 1022.14 1021.66 1021.14 1020.74 1020.30 1019.86 1019.42 1018.98 1018.62 1018.30 1017.98
1026.26 1026.34 1026.34 1026.46 1026.54 1026.50 1026.46 1026.46 1026.42 1026.30 1026.22 1026.10 1025.98 1025.86 1025.78 1025.66 1025.54 1025.38 1025.26 1025.14 1025.06 1024.94 1024.74 1024.58 1024.38 1024.18 1024.06 1023.78 1023.42 1023.06 1022.62 1022.18 1021.78 1021.34 1020.90 1020.46 1020.06 1019.66 1019.22 1018.74 1018.34 1017.98
1026.58 1026.62 1026.74 1026.82 1026.82 1026.86 1026.86 1026.82 1026.74 1026.62 1026.54 1026.46 1026.34 1026.22 1026.10 1025.94 1025.78 1025.70 1025.58 1025.42 1025.26 1025.14 1024.98 1024.78 1024.58 1024.34 1024.18 1023.86 1023.50 1023.10 1022.74 1022.30 1021.90 1021.54 1021.10 1020.62 1020.26 1019.86 1019.38 1018.90 1018.46 1018.06
1026.90 1026.98 1027.10 1027.14 1027.22 1027.26 1027.22 1027.14 1027.06 1026.94 1026.86 1026.74 1026.62 1026.54 1026.34 1026.14 1026.14 1025.98 1025.82 1025.74 1025.54 1025.42 1025.22 1025.02 1024.78 1024.46 1024.26 1023.94 1023.62 1023.22 1022.82 1022.38 1021.94 1021.66 1021.26 1020.86 1020.50 1020.06 1019.58 1019.06 1018.62 1018.18
1027.26 1027.30 1027.38 1027.50 1027.50 1027.50 1027.50 1027.42 1027.34 1027.26 1027.18 1027.02 1026.90 1026.70 1026.58 1026.50 1026.38 1026.30 1026.14 1026.02 1025.86 1025.74 1025.54 1025.26 1024.94 1024.58 1024.34 1024.02 1023.66 1023.34 1022.94 1022.46 1022.10 1021.74 1021.34 1020.94 1020.62 1020.18 1019.70 1019.22 1018.78 1018.42
1027.50 1027.58 1027.62 1027.70 1027.78 1027.78 1027.74 1027.66 1027.58 1027.42 1027.26 1027.22 1027.18 1027.14 1027.02 1026.94 1026.82 1026.62 1026.46 1026.34 1026.14 1025.98 1025.70 1025.42 1025.10 1024.70 1024.42 1024.10 1023.78 1023.42 1023.02 1022.58 1022.22 1021.78 1021.34 1020.94 1020.58 1020.26 1019.82 1019.30 1018.94 1018.54
1027.74 1027.78 1027.86 1027.94 1027.98 1027.90 1027.78 1027.74 1027.70 1027.74 1027.66 1027.58 1027.42 1027.30 1027.18 1027.06 1026.86 1026.78 1026.70 1026.58 1026.38 1026.14 1025.86 1025.58 1025.30 1024.94 1024.70 1024.42 1024.10 1023.70 1023.14 1022.62 1022.26 1021.86 1021.46 1021.06 1020.66 1020.34 1019.86 1019.38 1019.02 1018.66
1027.90 1027.90 1027.98 1028.06 1028.10 1027.98 1027.94 1027.98 1027.94 1027.90 1027.86 1027.86 1027.62 1027.50 1027.38 1027.22 1027.14 1027.02 1026.90 1026.78 1026.50 1026.30 1026.06 1025.82 1025.58 1025.14 1024.86 1024.58 1024.22 1023.82 1023.22 1022.78 1022.38 1021.94 1021.58 1021.26 1020.86 1020.46 1019.94 1019.50 1019.14 1018.70
1027.98 1027.98 1028.02 1028.18 1028.18 1028.18 1028.22 1028.22 1028.22 1028.18 1028.10 1028.14 1027.94 1027.78 1027.50 1027.54 1027.38 1027.22 1027.02 1026.90 1026.70 1026.50 1026.18 1026.06 1025.78 1025.26 1024.86 1024.54 1024.18 1023.82 1023.46 1023.06 1022.62 1022.22 1021.82 1021.46 1021.02 1020.54 1020.06 1019.66 1019.26 1018.78
1028.06 1028.10 1028.18 1028.22 1028.30 1028.46 1028.50 1028.38 1028.38 1028.38 1028.42 1028.26 1028.10 1027.98 1027.82 1027.78 1027.58 1027.50 1027.26 1026.98 1026.82 1026.66 1026.26 1026.14 1025.86 1025.34 1024.86 1024.62 1024.30 1023.98 1023.62 1023.30 1022.94 1022.54 1022.10 1021.66 1021.18 1020.66 1020.22 1019.82 1019.30 1018.82
1028.14 1028.14 1028.34 1028.42 1028.50 1028.62 1028.62 1028.62 1028.62 1028.50 1028.38 1028.26 1028.14 1028.18 1028.02 1027.94 1027.82 1027.70 1027.54 1027.26 1027.06 1026.82 1026.50 1026.26 1025.94 1025.54 1025.18 1024.90 1024.58 1024.22 1023.94 1023.58 1023.26 1022.86 1022.50 1022.02 1021.50 1020.94 1020.42 1019.90 1019.50 1018.98
Thickness
5624 5624 5623 5622 5621 5621 5620 5619 5618 5617 5616 5616 5616 5616 5616 5616 5616 5617 5617 5619 5620 5619 5618 5618 5617 5618 5618 5618 5618 5618 5618 5618 5619 5619 5618 5619 5619 5620 5619 5620 5620 5619
5618 5618 5618 5617 5616 5615 5615 5614 5612 5611 5610 5610 5610 5610 5610 5610 5610 5611 5612 5613 5614 5614 5613 5613 5612 5612 5613 5613 5613 5612 5612 5612 5614 5613 5613 5613 5615 5617 5617 5618 5618 5618
5613 5613 5612 5612 5610 5609 5609 5608 5607 5606 5605 5605 5605 5605 5605 5605 5605 5606 5607 5608 5608 5608 5607 5607 5607 5607 5607 5607 5607 5607 5606 5606 5607 5608 5608 5608 5609 5611 5612 5614 5615 5616
5607 5607 5607 5606 5605 5605 5604 5603 5603 5602 5602 5602 5601 5601 5601 5601 5601 5601 5602 5602 5603 5603 5602 5602 5601 5601 5602 5602 5601 5601 5600 5600 5601 5601 5602 5603 5604 5605 5606 5608 5611 5612
5602 5602 5601 5600 5600 5600 5600 5600 5600 5599 5599 5597 5597 5597 5598 5597 5597 5597 5597 5596 5597 5597 5597 5596 5596 5596 5595 5595 5595 5594 5593 5594 5594 5595 5596 5598 5598 5599 5601 5602 5604 5606
5596 5596 5596 5595 5595 5595 5596 5596 5596 5595 5594 5592 5592 5592 5593 5593 5593 5592 5591 5591 5590 5590 5590 5590 5589 5589 5589 5588 5587 5586 5586 5587 5588 5589 5590 5592 5593 5594 5595 5597 5598 5600
5590 5590 5590 5589 5590 5590 5590 5590 5589 5590 5588 5586 5586 5586 5586 5587 5586 5586 5585 5584 5584 5584 5583 5583 5582 5582 5582 5582 5581 5580 5580 5580 5581 5583 5584 5585 5587 5588 5589 5590 5592 5593
5585 5585 5584 5583 5583 5583 5583 5583 5582 5583 5582 5580 5579 5579 5580 5580 5579 5579 5578 5577 5576 5575 5574 5574 5574 5574 5575 5574 5574 5574 5574 5574 5575 5576 5577 5579 5581 5583 5584 5585 5586 5588
5579 5579 5578 5577 5577 5576 5576 5575 5575 5575 5575 5573 5572 5572 5572 5572 5572 5571 5570 5569 5568 5567 5567 5566 5566 5567 5567 5567 5567 5567 5567 5568 5568 5569 5570 5572 5574 5576 5578 5580 5581 5583
5573 5572 5571 5570 5570 5569 5568 5568 5567 5567 5567 5566 5565 5565 5565 5565 5564 5563 5562 5561 5560 5559 5559 5558 5558 5559 5559 5559 5559 5560 5560 5561 5562 5563 5565 5566 5568 5570 5573 5574 5575 5577
5566 5565 5564 5563 5562 5561 5560 5560 5560 5559 5559 5558 5557 5557 5557 5556 5556 5555 5554 5553 5552 5551 5551 5550 5550 5550 5551 5551 5552 5552 5553 5555 5556 5557 5559 5560 5562 5564 5566 5568 5570 5571
5559 5558 5557 5557 5555 5554 5554 5553 5553 5552 5552 5551 5550 5549 5548 5548 5547 5547 5546 5545 5544 5543 5542 5542 5542 5542 5543 5543 5544 5545 5546 5547 5549 5551 5552 5554 5555 5558 5560 5562 5565 5566
5552 5551 5551 5550 5549 5548 5547 5546 5546 5545 5544 5543 5543 5542 5541 5540 5540 5538 5538 5537 5536 5535 5534 5534 5534 5534 5535 5535 5536 5537 5538 5540 5542 5544 5545 5547 5549 5551 5553 5556 5558 5560
5545 5545 5545 5544 5543 5542 5541 5540 5539 5538 5537 5536 5536 5535 5534 5533 5532 5531 5530 5529 5529 5528 5527 5527 5527 5527 5527 5527 5528 5529 5530 5531 5534 5536 5538 5540 5542 5544 5546 5548 5550 5552
5539 5539 5539 5538 5537 5536 5535 5533 5533 5531 5530 5530 5529 5528 5527 5526 5524 5524 5523 5522 5522 5521 5520 5519 5519 5519 5519 5519 5519 5520 5522 5523 5525 5527 5530 5532 5534 5536 5538 5540 5542 5544
5533 5533 5533 5531 5530 5529 5528 5527 5525 5525 5523 5523 5522 5521 5520 5519 5518 5517 5517 5516 5515 5514 5513 5512 5512 5511 5510 5510 5511 5512 5514 5516 5518 5519 5521 5522 5525 5527 5530 5532 5534 5536
5528 5527 5526 5525 5523 5522 5521 5520 5518 5517 5516 5516 5515 5514 5513 5512 5511 5510 5510 5509 5508 5506 5506 5505 5504 5503 5502 5502 5503 5503 5505 5507 5509 5510 5512 5513 5515 5518 5521 5523 5526 5528
5522 5521 5519 5518 5517 5515 5514 5512 5511 5510 5509 5508 5507 5506 5506 5505 5504 5503 5502 5501 5500 5499 5498 5497 5496 5495 5494 5494 5495 5495 5496 5498 5499 5500 5502 5504 5505 5507 5510 5513 5517 5519
5515 5514 5512 5511 5509 5508 5507 5505 5504 5503 5501 5501 5500 5499 5499 5498 5496 5495 5494 5493 5492 5490 5489 5488 5487 5487 5486 5486 5486 5487 5487 5488 5489 5489 5490 5492 5494 5496 5499 5502 5505 5509
5508 5507 5506 5504 5502 5501 5499 5498 5497 5496 5495 5494 5493 5492 5491 5490 5488 5486 5485 5484 5483 5481 5480 5479 5479 5479 5478 5478 5478 5478 5478 5478 5479 5479 5479 5481 5482 5484 5487 5490 5492 5496
5502 5501 5499 5497 5495 5494 5493 5491 5490 5489 5489 5488 5486 5485 5483 5482 5480 5479 5477 5476 5475 5473 5473 5472 5472 5472 5471 5470 5470 5469 5469 5469 5468 5469 5469 5470 5471 5473 5474 5477 5480 5483
5496 5495 5493 5491 5489 5488 5487 5485 5484 5483 5482 5481 5479 5478 5477 5475 5474 5472 5471 5470 5469 5467 5467 5466 5465 5465 5464 5463 5462 5462 5462 5462 5461 5460 5460 5459 5459 5461 5462 5463 5466 5469
5491 5489 5487 5485 5483 5483 5481 5479 5477 5476 5475 5474 5473 5472 5470 5469 5468 5467 5465 5464 5463 5462 5461 5459 5458 5458 5457 5456 5456 5455 5456 5455 5454 5452 5450 5449 5448 5448 5449 5450 5452 5454
5486 5484 5482 5480 5478 5476 5474 5472 5471 5470 5469 5467 5466 5466 5464 5463 5462 5461 5460 5459 5457 5456 5454 5453 5452 5452 5451 5451 5450 5449 5448 5448 5446 5444 5442 5440 5438 5437 5437 5437 5438 5441
5481 5479 5477 5475 5472 5470 5468 5467 5465 5465 5463 5462 5461 5460 5459 5458 5456 5454 5453 5452 5450 5449 5448 5446 5446 5445 5445 5444 5443 5442 5440 5439 5437 5435 5432 5431 5429 5426 5425 5425 5425 5427
5476 5474 5471 5469 5467 5465 5463 5462 5461 5460 5459 5458 5456 5455 5453 5452 5450 5448 5446 5445 5444 5442 5441 5440 5438 5438 5437 5436 5434 5433 5431 5429 5427 5425 5422 5420 5418 5416 5414 5414 5413 5414